GLD1028 SBSV-SBGO

Flight info

Callsign GLD1028
Flight time 1h 47m
Altitude 38000
Route UMPE1A ARNOX UZ17 MOLTI DCT SIREM SIRE2B
Aircraft B738/M-SDFGIRY/S

Departure

Time 2026-05-07 21:05
Airport Deputado Luiz Eduardo Magalhães International Airport (SBSV)

Arrival

Time 2026-05-07 22:53
Airport Santa Genoveva International Airport (SBGO)
Time Latitude Longitude Altitude Speed Heading
2026-05-07 20:51 -12.91347 -38.33225 25 ft 0 kts 206°
2026-05-07 20:57 -12.91342 -38.33223 31 ft 2 kts 206°
2026-05-07 20:57 -12.91331 -38.33217 26 ft 2 kts 206°
2026-05-07 20:57 -12.91320 -38.33212 26 ft 2 kts 206°
2026-05-07 20:58 -12.91309 -38.33206 30 ft 2 kts 206°
2026-05-07 20:58 -12.91297 -38.33200 31 ft 2 kts 214°
2026-05-07 20:58 -12.91285 -38.33192 27 ft 2 kts 220°
2026-05-07 20:58 -12.91277 -38.33179 29 ft 1 kts 256°
2026-05-07 21:00 -12.91280 -38.33193 29 ft 3 kts 261°
2026-05-07 21:00 -12.91282 -38.33213 26 ft 3 kts 265°
2026-05-07 21:01 -12.91284 -38.33232 25 ft 3 kts 264°
2026-05-07 21:01 -12.91286 -38.33251 25 ft 3 kts 264°
2026-05-07 21:01 -12.91287 -38.33268 25 ft 2 kts 264°
2026-05-07 21:01 -12.91288 -38.33286 25 ft 3 kts 271°
2026-05-07 21:02 -12.91283 -38.33311 25 ft 4 kts 281°
2026-05-07 21:02 -12.91271 -38.33326 28 ft 4 kts 336°
2026-05-07 21:02 -12.91240 -38.33329 24 ft 5 kts 344°
2026-05-07 21:02 -12.91214 -38.33351 24 ft 6 kts 307°
2026-05-07 21:03 -12.91193 -38.33384 25 ft 0 kts 300°
2026-05-07 21:03 -12.91193 -38.33385 24 ft 1 kts 300°
2026-05-07 21:03 -12.91184 -38.33421 23 ft 9 kts 273°
2026-05-07 21:03 -12.91191 -38.33498 21 ft 12 kts 261°
2026-05-07 21:04 -12.91177 -38.33573 21 ft 11 kts 312°
2026-05-07 21:04 -12.91129 -38.33595 19 ft 5 kts 57°
2026-05-07 21:04 -12.91128 -38.33592 19 ft 0 kts 69°
2026-05-07 21:05 -12.91103 -38.33486 21 ft 48 kts 78°
2026-05-07 21:05 -12.90987 -38.32906 29 ft 116 kts 78°
2026-05-07 21:05 -12.90785 -38.31908 147 ft 160 kts 78°
2026-05-07 21:05 -12.90573 -38.30836 988 ft 148 kts 82°
2026-05-07 21:06 -12.90367 -38.29687 1350 ft 177 kts 82°
2026-05-07 21:06 -12.90151 -38.28437 2015 ft 185 kts 88°
2026-05-07 21:06 -12.90538 -38.27134 2240 ft 207 kts 132°
2026-05-07 21:06 -12.91844 -38.26401 2496 ft 228 kts 169°
2026-05-07 21:07 -12.93438 -38.26586 3044 ft 239 kts 202°
2026-05-07 21:07 -12.94712 -38.27715 3634 ft 250 kts 233°
2026-05-07 21:07 -12.95651 -38.29227 4268 ft 253 kts 235°
2026-05-07 21:07 -12.96597 -38.30759 4908 ft 256 kts 234°
2026-05-07 21:08 -12.97579 -38.32309 5484 ft 261 kts 234°
2026-05-07 21:08 -12.98593 -38.33863 6086 ft 266 kts 233°
2026-05-07 21:08 -12.99662 -38.35468 6622 ft 277 kts 233°
2026-05-07 21:08 -13.00765 -38.37109 7332 ft 279 kts 233°
2026-05-07 21:09 -13.01876 -38.38759 8043 ft 283 kts 233°
2026-05-07 21:09 -13.02828 -38.40540 8721 ft 290 kts 253°
2026-05-07 21:09 -13.03239 -38.42574 9465 ft 292 kts 259°
2026-05-07 21:09 -13.03599 -38.44639 10178 ft 296 kts 259°
2026-05-07 21:10 -13.03972 -38.46770 10503 ft 315 kts 259°
2026-05-07 21:10 -13.04378 -38.49057 10676 ft 337 kts 259°
2026-05-07 21:10 -13.04819 -38.51499 10835 ft 358 kts 259°
2026-05-07 21:10 -13.05285 -38.54056 11187 ft 370 kts 259°
2026-05-07 21:11 -13.05757 -38.56630 11765 ft 374 kts 258°
2026-05-07 21:11 -13.06240 -38.59254 12414 ft 375 kts 258°
2026-05-07 21:11 -13.07218 -38.64555 13647 ft 381 kts 258°
2026-05-07 21:12 -13.07712 -38.67235 14232 ft 383 kts 259°
2026-05-07 21:12 -13.08207 -38.69920 14843 ft 384 kts 259°
2026-05-07 21:12 -13.08705 -38.72622 15343 ft 387 kts 259°
2026-05-07 21:12 -13.09215 -38.75350 15833 ft 391 kts 258°
2026-05-07 21:13 -13.09744 -38.78089 16417 ft 392 kts 258°
2026-05-07 21:13 -13.10282 -38.80838 16997 ft 393 kts 258°
2026-05-07 21:13 -13.10823 -38.83597 17487 ft 396 kts 258°
2026-05-07 21:13 -13.11369 -38.86386 17971 ft 399 kts 258°
2026-05-07 21:14 -13.11915 -38.89186 18455 ft 401 kts 258°
2026-05-07 21:14 -13.12462 -38.91999 18905 ft 403 kts 258°
2026-05-07 21:14 -13.13011 -38.94823 19361 ft 404 kts 258°
2026-05-07 21:14 -13.13561 -38.97659 19799 ft 406 kts 258°
2026-05-07 21:15 -13.14113 -39.00509 20218 ft 409 kts 258°
2026-05-07 21:15 -13.14668 -39.03377 20630 ft 411 kts 258°
2026-05-07 21:15 -13.15226 -39.06260 21056 ft 413 kts 258°
2026-05-07 21:15 -13.15785 -39.09155 21501 ft 414 kts 258°
2026-05-07 21:16 -13.16347 -39.12059 21924 ft 416 kts 258°
2026-05-07 21:16 -13.16912 -39.14988 22285 ft 420 kts 258°
2026-05-07 21:16 -13.17481 -39.17936 22670 ft 422 kts 258°
2026-05-07 21:16 -13.18052 -39.20895 23095 ft 423 kts 258°
2026-05-07 21:17 -13.18624 -39.23862 23489 ft 425 kts 258°
2026-05-07 21:17 -13.19199 -39.26850 23780 ft 429 kts 258°
2026-05-07 21:17 -13.19778 -39.29857 24093 ft 430 kts 258°
2026-05-07 21:17 -13.20357 -39.32871 24455 ft 431 kts 258°
2026-05-07 21:18 -13.20938 -39.35893 24771 ft 433 kts 258°
2026-05-07 21:18 -13.21515 -39.38897 25041 ft 435 kts 258°
2026-05-07 21:18 -13.22102 -39.41952 25340 ft 437 kts 258°
2026-05-07 21:18 -13.22690 -39.45018 25659 ft 438 kts 258°
2026-05-07 21:19 -13.23278 -39.48086 25961 ft 440 kts 258°
2026-05-07 21:19 -13.23871 -39.51180 26261 ft 442 kts 258°
2026-05-07 21:19 -13.24465 -39.54287 26541 ft 443 kts 258°
2026-05-07 21:19 -13.25061 -39.57398 26835 ft 445 kts 258°
2026-05-07 21:20 -13.25656 -39.60514 27120 ft 446 kts 257°
2026-05-07 21:20 -13.26255 -39.63650 27417 ft 448 kts 257°
2026-05-07 21:20 -13.26854 -39.66791 27688 ft 449 kts 257°
2026-05-07 21:20 -13.27456 -39.69943 27959 ft 451 kts 257°
2026-05-07 21:21 -13.28060 -39.73108 28191 ft 453 kts 257°
2026-05-07 21:21 -13.28824 -39.76244 28407 ft 453 kts 248°
2026-05-07 21:21 -13.30081 -39.79204 28673 ft 453 kts 243°
2026-05-07 21:21 -13.31458 -39.82122 28946 ft 454 kts 243°
2026-05-07 21:22 -13.32834 -39.85045 29208 ft 455 kts 243°
2026-05-07 21:22 -13.34178 -39.87990 29485 ft 456 kts 244°
2026-05-07 21:22 -13.35491 -39.90946 29850 ft 454 kts 244°
2026-05-07 21:22 -13.36786 -39.93895 30232 ft 452 kts 244°
2026-05-07 21:23 -13.38072 -39.96839 30567 ft 450 kts 244°
2026-05-07 21:23 -13.39343 -39.99761 30881 ft 448 kts 244°
2026-05-07 21:23 -13.40613 -40.02688 31192 ft 447 kts 244°
2026-05-07 21:23 -13.41873 -40.05591 31513 ft 445 kts 244°
2026-05-07 21:24 -13.43115 -40.08454 31837 ft 443 kts 244°
2026-05-07 21:24 -13.44385 -40.11380 32154 ft 442 kts 244°
2026-05-07 21:24 -13.45634 -40.14258 32450 ft 441 kts 244°
2026-05-07 21:24 -13.46864 -40.17093 32760 ft 439 kts 244°
2026-05-07 21:25 -13.48106 -40.19955 33041 ft 438 kts 243°
2026-05-07 21:25 -13.49346 -40.22814 33308 ft 438 kts 243°
2026-05-07 21:25 -13.50583 -40.25669 33610 ft 436 kts 243°
2026-05-07 21:25 -13.51814 -40.28509 33923 ft 434 kts 243°
2026-05-07 21:26 -13.53043 -40.31347 34195 ft 433 kts 243°
2026-05-07 21:26 -13.54265 -40.34168 34441 ft 432 kts 243°
2026-05-07 21:26 -13.55485 -40.36986 34653 ft 431 kts 243°
2026-05-07 21:26 -13.56704 -40.39802 34864 ft 431 kts 243°
2026-05-07 21:27 -13.57920 -40.42612 35099 ft 430 kts 243°
2026-05-07 21:27 -13.59133 -40.45418 35296 ft 429 kts 243°
2026-05-07 21:27 -13.60341 -40.48214 35545 ft 427 kts 243°
2026-05-07 21:27 -13.61541 -40.50992 35790 ft 425 kts 242°
2026-05-07 21:28 -13.62732 -40.53749 35982 ft 425 kts 242°
2026-05-07 21:28 -13.63934 -40.56531 36039 ft 427 kts 242°
2026-05-07 21:28 -13.66349 -40.62126 36046 ft 427 kts 242°
2026-05-07 21:29 -13.68750 -40.67696 36055 ft 424 kts 242°
2026-05-07 21:29 -13.71132 -40.73224 36042 ft 422 kts 242°
2026-05-07 21:30 -13.73507 -40.78739 36036 ft 421 kts 242°
2026-05-07 21:30 -13.75854 -40.84206 36045 ft 420 kts 242°
2026-05-07 21:31 -13.78216 -40.89711 36038 ft 421 kts 242°
2026-05-07 21:31 -13.80581 -40.95230 36038 ft 422 kts 242°
2026-05-07 21:32 -13.82951 -41.00762 36043 ft 423 kts 242°
2026-05-07 21:32 -13.85328 -41.06316 36046 ft 425 kts 242°
2026-05-07 21:33 -13.87714 -41.11894 36044 ft 426 kts 242°
2026-05-07 21:33 -13.90111 -41.17489 36045 ft 427 kts 242°
2026-05-07 21:34 -13.92510 -41.23086 36039 ft 428 kts 242°
2026-05-07 21:34 -13.94916 -41.28705 36042 ft 429 kts 242°
2026-05-07 21:35 -13.97320 -41.34327 36039 ft 429 kts 242°
2026-05-07 21:35 -13.99722 -41.39948 36038 ft 428 kts 242°
2026-05-07 21:36 -14.02128 -41.45583 36249 ft 430 kts 242°
2026-05-07 21:36 -14.03315 -41.48366 36504 ft 428 kts 242°
2026-05-07 21:36 -14.04508 -41.51165 36747 ft 426 kts 242°
2026-05-07 21:37 -14.05694 -41.53947 36979 ft 424 kts 242°
2026-05-07 21:37 -14.06881 -41.56732 37157 ft 424 kts 242°
2026-05-07 21:37 -14.08064 -41.59507 37306 ft 424 kts 242°
2026-05-07 21:37 -14.09249 -41.62288 37471 ft 423 kts 242°
2026-05-07 21:38 -14.10445 -41.65098 37635 ft 423 kts 242°
2026-05-07 21:38 -14.11608 -41.67828 37804 ft 422 kts 242°
2026-05-07 21:38 -14.12782 -41.70588 37983 ft 420 kts 242°
2026-05-07 21:38 -14.13957 -41.73350 38020 ft 422 kts 242°
2026-05-07 21:39 -14.16320 -41.78904 38020 ft 424 kts 242°
2026-05-07 21:39 -14.18680 -41.84462 38028 ft 424 kts 242°
2026-05-07 21:40 -14.21042 -41.90029 38024 ft 424 kts 242°
2026-05-07 21:40 -14.23405 -41.95599 38024 ft 424 kts 242°
2026-05-07 21:41 -14.25766 -42.01171 38017 ft 424 kts 242°
2026-05-07 21:41 -14.28122 -42.06735 38030 ft 423 kts 242°
2026-05-07 21:42 -14.30477 -42.12300 38031 ft 423 kts 242°
2026-05-07 21:42 -14.32827 -42.17859 38029 ft 423 kts 242°
2026-05-07 21:43 -14.35179 -42.23427 38019 ft 423 kts 243°
2026-05-07 21:43 -14.37524 -42.28990 38031 ft 423 kts 243°
2026-05-07 21:44 -14.39467 -42.33614 38042 ft 423 kts 242°
2026-05-07 21:44 -14.41806 -42.39184 38037 ft 423 kts 242°
2026-05-07 21:45 -14.44149 -42.44767 38031 ft 424 kts 243°
2026-05-07 21:45 -14.46491 -42.50344 38029 ft 424 kts 243°
2026-05-07 21:46 -14.48839 -42.55927 38030 ft 424 kts 243°
2026-05-07 21:46 -14.51190 -42.61522 38016 ft 425 kts 243°
2026-05-07 21:47 -14.53538 -42.67115 38026 ft 425 kts 243°
2026-05-07 21:47 -14.55887 -42.72715 38035 ft 425 kts 243°
2026-05-07 21:48 -14.58236 -42.78323 38014 ft 426 kts 243°
2026-05-07 21:48 -14.60585 -42.83934 38018 ft 426 kts 243°
2026-05-07 21:49 -14.62921 -42.89517 38012 ft 426 kts 243°
2026-05-07 21:49 -14.65283 -42.95168 38007 ft 426 kts 243°
2026-05-07 21:50 -14.67629 -43.00785 38001 ft 426 kts 243°
2026-05-07 21:50 -14.69957 -43.06362 38001 ft 425 kts 243°
2026-05-07 21:51 -14.72298 -43.11976 38002 ft 425 kts 243°
2026-05-07 21:51 -14.74635 -43.17584 38005 ft 425 kts 243°
2026-05-07 21:52 -14.76969 -43.23191 37993 ft 424 kts 243°
2026-05-07 21:52 -14.79299 -43.28790 37997 ft 424 kts 243°
2026-05-07 21:53 -14.81626 -43.34388 37993 ft 424 kts 243°
2026-05-07 21:53 -14.83948 -43.39977 37998 ft 424 kts 243°
2026-05-07 21:54 -14.86273 -43.45580 37989 ft 423 kts 243°
2026-05-07 21:54 -14.88593 -43.51175 37982 ft 423 kts 243°
2026-05-07 21:55 -14.90911 -43.56769 37980 ft 424 kts 243°
2026-05-07 21:55 -14.93216 -43.62335 37989 ft 423 kts 243°
2026-05-07 21:56 -14.95532 -43.67933 37992 ft 423 kts 243°
2026-05-07 21:56 -14.97848 -43.73538 37984 ft 423 kts 243°
2026-05-07 21:57 -15.00162 -43.79139 37986 ft 423 kts 243°
2026-05-07 21:57 -15.02473 -43.84740 37988 ft 423 kts 243°
2026-05-07 21:58 -15.04783 -43.90347 37990 ft 423 kts 243°
2026-05-07 21:58 -15.07089 -43.95953 37987 ft 424 kts 243°
2026-05-07 21:59 -15.09397 -44.01569 38003 ft 423 kts 243°
2026-05-07 21:59 -15.11702 -44.07178 38001 ft 423 kts 243°
2026-05-07 22:00 -15.14002 -44.12780 37997 ft 423 kts 243°
2026-05-07 22:00 -15.16299 -44.18381 38002 ft 423 kts 243°
2026-05-07 22:01 -15.18600 -44.23999 37999 ft 423 kts 243°
2026-05-07 22:01 -15.20876 -44.29560 38008 ft 423 kts 243°
2026-05-07 22:02 -15.23170 -44.35165 38014 ft 423 kts 243°
2026-05-07 22:02 -15.25469 -44.40778 38010 ft 423 kts 243°
2026-05-07 22:03 -15.27765 -44.46387 38013 ft 422 kts 243°
2026-05-07 22:03 -15.30053 -44.51983 38012 ft 422 kts 243°
2026-05-07 22:04 -15.32343 -44.57588 38009 ft 422 kts 243°
2026-05-07 22:04 -15.34627 -44.63186 38004 ft 421 kts 243°
2026-05-07 22:05 -15.36907 -44.68777 38011 ft 421 kts 243°
2026-05-07 22:05 -15.39185 -44.74367 38011 ft 421 kts 243°
2026-05-07 22:06 -15.41446 -44.79922 38006 ft 421 kts 243°
2026-05-07 22:06 -15.43718 -44.85507 38000 ft 421 kts 243°
2026-05-07 22:07 -15.45987 -44.91092 38004 ft 420 kts 243°
2026-05-07 22:07 -15.48255 -44.96677 38006 ft 420 kts 243°
2026-05-07 22:08 -15.50521 -45.02262 38004 ft 420 kts 243°
2026-05-07 22:08 -15.52781 -45.07836 38003 ft 420 kts 243°
2026-05-07 22:09 -15.55040 -45.13415 38002 ft 420 kts 243°
2026-05-07 22:09 -15.57301 -45.19004 37999 ft 420 kts 243°
2026-05-07 22:10 -15.59555 -45.24583 38007 ft 419 kts 244°
2026-05-07 22:10 -15.61810 -45.30170 38003 ft 419 kts 244°
2026-05-07 22:11 -15.64061 -45.35748 38014 ft 419 kts 244°
2026-05-07 22:11 -15.66309 -45.41326 38008 ft 419 kts 244°
2026-05-07 22:12 -15.68553 -45.46899 38004 ft 418 kts 244°
2026-05-07 22:12 -15.70792 -45.52464 38007 ft 417 kts 244°
2026-05-07 22:13 -15.73014 -45.57992 38010 ft 417 kts 244°
2026-05-07 22:13 -15.75242 -45.63539 38008 ft 416 kts 244°
2026-05-07 22:14 -15.77466 -45.69082 38008 ft 416 kts 244°
2026-05-07 22:14 -15.79686 -45.74619 38000 ft 415 kts 244°
2026-05-07 22:15 -15.81900 -45.80142 38008 ft 415 kts 244°
2026-05-07 22:15 -15.84125 -45.85666 37998 ft 414 kts 244°
2026-05-07 22:16 -15.86346 -45.91180 38001 ft 413 kts 244°
2026-05-07 22:16 -15.88561 -45.96687 38004 ft 413 kts 244°
2026-05-07 22:17 -15.90773 -46.02194 38007 ft 412 kts 244°
2026-05-07 22:17 -15.92977 -46.07688 38004 ft 412 kts 244°
2026-05-07 22:18 -15.96264 -46.15945 38007 ft 412 kts 244°
2026-05-07 22:19 -15.98450 -46.21449 38016 ft 412 kts 244°
2026-05-07 22:19 -16.00637 -46.26956 38016 ft 412 kts 244°
2026-05-07 22:20 -16.02820 -46.32456 38016 ft 412 kts 244°
2026-05-07 22:20 -16.05006 -46.37971 38026 ft 412 kts 244°
2026-05-07 22:21 -16.07191 -46.43485 38024 ft 412 kts 244°
2026-05-07 22:21 -16.09360 -46.48965 38022 ft 412 kts 244°
2026-05-07 22:22 -16.11540 -46.54478 38022 ft 412 kts 244°
2026-05-07 22:22 -16.13718 -46.59989 38019 ft 412 kts 245°
2026-05-07 22:23 -16.15892 -46.65497 38016 ft 411 kts 245°
2026-05-07 22:23 -16.18065 -46.71008 38014 ft 411 kts 245°
2026-05-07 22:24 -16.20243 -46.76534 37601 ft 412 kts 244°
2026-05-07 22:24 -16.21325 -46.79283 37168 ft 408 kts 244°
2026-05-07 22:24 -16.22393 -46.82001 36782 ft 404 kts 245°
2026-05-07 22:24 -16.23452 -46.84714 36265 ft 403 kts 245°
2026-05-07 22:25 -16.24497 -46.87403 35829 ft 401 kts 245°
2026-05-07 22:25 -16.25538 -46.90084 35463 ft 398 kts 245°
2026-05-07 22:25 -16.26572 -46.92747 35059 ft 396 kts 244°
2026-05-07 22:25 -16.27601 -46.95399 34651 ft 394 kts 244°
2026-05-07 22:26 -16.28626 -46.98039 34237 ft 393 kts 245°
2026-05-07 22:26 -16.29646 -47.00667 33832 ft 391 kts 245°
2026-05-07 22:26 -16.30648 -47.03250 33414 ft 388 kts 245°
2026-05-07 22:26 -16.31657 -47.05850 33017 ft 386 kts 245°
2026-05-07 22:27 -16.32659 -47.08435 32623 ft 384 kts 245°
2026-05-07 22:27 -16.33656 -47.11008 32244 ft 382 kts 245°
2026-05-07 22:27 -16.34645 -47.13560 31866 ft 380 kts 245°
2026-05-07 22:27 -16.35629 -47.16102 31493 ft 378 kts 245°
2026-05-07 22:28 -16.36612 -47.18640 31111 ft 377 kts 245°
2026-05-07 22:28 -16.37588 -47.21162 30733 ft 376 kts 246°
2026-05-07 22:28 -16.38532 -47.23703 30357 ft 376 kts 250°
2026-05-07 22:28 -16.39131 -47.26361 29815 ft 381 kts 259°
2026-05-07 22:29 -16.39474 -47.29113 29200 ft 385 kts 261°
2026-05-07 22:29 -16.39781 -47.31878 28746 ft 384 kts 261°
2026-05-07 22:29 -16.40081 -47.34630 28365 ft 381 kts 261°
2026-05-07 22:29 -16.40382 -47.37364 27983 ft 379 kts 261°
2026-05-07 22:30 -16.40584 -47.39161 27714 ft 378 kts 261°
2026-05-07 22:30 -16.40893 -47.41872 27308 ft 376 kts 261°
2026-05-07 22:30 -16.41205 -47.44574 26919 ft 375 kts 261°
2026-05-07 22:30 -16.41519 -47.47263 26538 ft 373 kts 261°
2026-05-07 22:31 -16.41832 -47.49941 26166 ft 372 kts 261°
2026-05-07 22:31 -16.42146 -47.52610 25801 ft 370 kts 261°
2026-05-07 22:31 -16.42458 -47.55268 25436 ft 369 kts 261°
2026-05-07 22:31 -16.42768 -47.57917 25082 ft 368 kts 261°
2026-05-07 22:32 -16.43078 -47.60558 24730 ft 367 kts 261°
2026-05-07 22:32 -16.43386 -47.63187 24395 ft 365 kts 261°
2026-05-07 22:32 -16.43691 -47.65802 24065 ft 363 kts 261°
2026-05-07 22:32 -16.43996 -47.68410 23719 ft 362 kts 261°
2026-05-07 22:33 -16.44300 -47.71013 23338 ft 361 kts 261°
2026-05-07 22:33 -16.44603 -47.73606 22962 ft 360 kts 261°
2026-05-07 22:33 -16.44903 -47.76190 22615 ft 357 kts 261°
2026-05-07 22:33 -16.45201 -47.78752 22266 ft 355 kts 261°
2026-05-07 22:34 -16.45497 -47.81300 21911 ft 353 kts 261°
2026-05-07 22:34 -16.45791 -47.83834 21575 ft 351 kts 261°
2026-05-07 22:34 -16.46083 -47.86355 21231 ft 350 kts 261°
2026-05-07 22:34 -16.46375 -47.88867 20884 ft 348 kts 262°
2026-05-07 22:35 -16.46664 -47.91369 20550 ft 347 kts 262°
2026-05-07 22:35 -16.46952 -47.93857 20226 ft 345 kts 262°
2026-05-07 22:35 -16.47238 -47.96336 19904 ft 344 kts 262°
2026-05-07 22:35 -16.47522 -47.98800 19581 ft 342 kts 262°
2026-05-07 22:36 -16.47805 -48.01259 19266 ft 341 kts 262°
2026-05-07 22:36 -16.48088 -48.03709 18942 ft 340 kts 262°
2026-05-07 22:36 -16.48369 -48.06155 18618 ft 340 kts 262°
2026-05-07 22:36 -16.48649 -48.08596 18317 ft 338 kts 262°
2026-05-07 22:37 -16.48928 -48.11025 17974 ft 337 kts 263°
2026-05-07 22:37 -16.49205 -48.13439 17650 ft 334 kts 263°
2026-05-07 22:37 -16.49479 -48.15835 17347 ft 332 kts 263°
2026-05-07 22:37 -16.49751 -48.18215 17031 ft 330 kts 263°
2026-05-07 22:38 -16.50021 -48.20578 16720 ft 328 kts 263°
2026-05-07 22:38 -16.50289 -48.22929 16407 ft 326 kts 263°
2026-05-07 22:38 -16.50556 -48.25267 16108 ft 324 kts 263°
2026-05-07 22:38 -16.50821 -48.27590 15808 ft 322 kts 264°
2026-05-07 22:39 -16.51084 -48.29901 15508 ft 320 kts 264°
2026-05-07 22:39 -16.51345 -48.32196 15224 ft 318 kts 264°
2026-05-07 22:39 -16.51603 -48.34473 14929 ft 316 kts 264°
2026-05-07 22:39 -16.51861 -48.36743 14629 ft 314 kts 264°
2026-05-07 22:40 -16.52117 -48.38999 14361 ft 313 kts 264°
2026-05-07 22:40 -16.52370 -48.41237 14083 ft 311 kts 264°
2026-05-07 22:40 -16.52622 -48.43467 13802 ft 309 kts 264°
2026-05-07 22:40 -16.52873 -48.45689 13474 ft 308 kts 265°
2026-05-07 22:41 -16.53123 -48.47902 13157 ft 307 kts 265°
2026-05-07 22:41 -16.53372 -48.50103 12856 ft 305 kts 265°
2026-05-07 22:41 -16.53618 -48.52289 12557 ft 303 kts 265°
2026-05-07 22:41 -16.53863 -48.54465 12250 ft 301 kts 265°
2026-05-07 22:42 -16.54106 -48.56629 11956 ft 300 kts 265°
2026-05-07 22:42 -16.54348 -48.58780 11657 ft 299 kts 265°
2026-05-07 22:42 -16.54589 -48.60929 11372 ft 297 kts 265°
2026-05-07 22:42 -16.54828 -48.63062 11114 ft 295 kts 265°
2026-05-07 22:43 -16.55083 -48.65167 10869 ft 292 kts 262°
2026-05-07 22:43 -16.55510 -48.67235 10575 ft 293 kts 258°
2026-05-07 22:43 -16.56012 -48.69293 10265 ft 293 kts 257°
2026-05-07 22:43 -16.56523 -48.71344 10005 ft 292 kts 258°
2026-05-07 22:44 -16.57028 -48.73391 9724 ft 290 kts 258°
2026-05-07 22:44 -16.57521 -48.75424 9426 ft 289 kts 258°
2026-05-07 22:44 -16.58007 -48.77454 9140 ft 288 kts 258°
2026-05-07 22:44 -16.58482 -48.79453 8866 ft 287 kts 258°
2026-05-07 22:45 -16.58957 -48.81464 8624 ft 284 kts 258°
2026-05-07 22:45 -16.59425 -48.83457 8447 ft 282 kts 258°
2026-05-07 22:45 -16.59893 -48.85448 8274 ft 283 kts 258°
2026-05-07 22:45 -16.60360 -48.87444 8110 ft 283 kts 258°
2026-05-07 22:46 -16.60823 -48.89420 7946 ft 278 kts 258°
2026-05-07 22:46 -16.61276 -48.91359 7775 ft 273 kts 258°
2026-05-07 22:46 -16.61721 -48.93258 7624 ft 267 kts 259°
2026-05-07 22:46 -16.62157 -48.95124 7480 ft 262 kts 258°
2026-05-07 22:47 -16.62583 -48.96948 7321 ft 257 kts 259°
2026-05-07 22:47 -16.63001 -48.98735 7178 ft 251 kts 259°
2026-05-07 22:47 -16.63534 -49.00445 7009 ft 247 kts 239°
2026-05-07 22:47 -16.64740 -49.01655 6815 ft 237 kts 212°
2026-05-07 22:48 -16.66137 -49.02501 6563 ft 228 kts 210°
2026-05-07 22:48 -16.67489 -49.03301 6290 ft 219 kts 210°
2026-05-07 22:48 -16.68789 -49.04073 6031 ft 211 kts 211°
2026-05-07 22:48 -16.70035 -49.04816 5779 ft 203 kts 211°
2026-05-07 22:49 -16.71131 -49.05727 5525 ft 202 kts 242°
2026-05-07 22:49 -16.71408 -49.07090 5321 ft 191 kts 284°
2026-05-07 22:49 -16.70961 -49.08332 5147 ft 178 kts 302°
2026-05-07 22:49 -16.70363 -49.09406 4935 ft 168 kts 304°
2026-05-07 22:50 -16.69771 -49.10420 4765 ft 159 kts 304°
2026-05-07 22:50 -16.69185 -49.11439 4561 ft 164 kts 303°
2026-05-07 22:50 -16.68614 -49.12453 4366 ft 164 kts 303°
2026-05-07 22:50 -16.68038 -49.13480 4157 ft 163 kts 303°
2026-05-07 22:51 -16.67465 -49.14499 3937 ft 163 kts 303°
2026-05-07 22:51 -16.66895 -49.15516 3720 ft 162 kts 302°
2026-05-07 22:51 -16.66323 -49.16534 3524 ft 166 kts 302°
2026-05-07 22:51 -16.65732 -49.17588 3289 ft 170 kts 302°
2026-05-07 22:52 -16.65138 -49.18646 3059 ft 168 kts 301°
2026-05-07 22:52 -16.64549 -49.19696 2807 ft 167 kts 301°
2026-05-07 22:52 -16.63985 -49.20708 2587 ft 155 kts 301°
2026-05-07 22:52 -16.63470 -49.21618 2460 ft 135 kts 301°
2026-05-07 22:53 -16.63174 -49.22147 2450 ft 42 kts 300°
2026-05-07 22:53 -16.63034 -49.22395 2452 ft 34 kts 300°
2026-05-07 22:53 -16.62897 -49.22572 2458 ft 28 kts 320°
2026-05-07 22:53 -16.62776 -49.22645 2460 ft 15 kts 354°
2026-05-07 22:54 -16.62754 -49.22636 2458 ft 0 kts 37°
2026-05-07 22:54 -16.62752 -49.22634 2458 ft 2 kts 39°
2026-05-07 22:55 -16.62742 -49.22584 2458 ft 10 kts 106°
2026-05-07 22:55 -16.62774 -49.22520 2462 ft 10 kts 120°
2026-05-07 22:55 -16.62808 -49.22461 2459 ft 9 kts 120°
2026-05-07 22:55 -16.62841 -49.22403 2455 ft 9 kts 120°
2026-05-07 22:56 -16.62872 -49.22346 2452 ft 9 kts 120°
2026-05-07 22:56 -16.62903 -49.22290 2450 ft 9 kts 120°
2026-05-07 22:56 -16.62933 -49.22238 2449 ft 8 kts 119°
2026-05-07 22:56 -16.62961 -49.22186 2448 ft 8 kts 120°
2026-05-07 22:57 -16.62982 -49.22134 2445 ft 8 kts 107°
2026-05-07 22:57 -16.62991 -49.22080 2450 ft 7 kts 96°
2026-05-07 22:57 -16.62992 -49.22027 2444 ft 7 kts 86°
2026-05-07 22:57 -16.62983 -49.21977 2445 ft 7 kts 77°
2026-05-07 22:58 -16.62972 -49.21928 2453 ft 7 kts 77°
2026-05-07 22:58 -16.62962 -49.21881 2448 ft 7 kts 78°
2026-05-07 22:58 -16.62953 -49.21835 2452 ft 6 kts 77°
2026-05-07 22:58 -16.62943 -49.21789 2457 ft 6 kts 76°
2026-05-07 22:59 -16.62933 -49.21746 2459 ft 6 kts 77°
2026-05-07 22:59 -16.62923 -49.21703 2461 ft 6 kts 77°
2026-05-07 22:59 -16.62918 -49.21660 2465 ft 6 kts 96°
2026-05-07 22:59 -16.62939 -49.21626 2463 ft 6 kts 146°
2026-05-07 23:00 -16.62974 -49.21608 2465 ft 6 kts 154°
2026-05-07 23:00 -16.62996 -49.21586 2461 ft 3 kts 93°
2026-05-07 23:00 -16.62989 -49.21562 2465 ft 3 kts 73°
2026-05-07 23:00 -16.62981 -49.21544 2463 ft 0 kts 64°
2026-05-07 23:01 -16.62979 -49.21539 2462 ft 1 kts 64°
2026-05-07 23:01 -16.62976 -49.21532 2461 ft 0 kts 64°